Location: Unspecified
(0.0000°N, 0.0000°E)
Time: 12:11:29
(UTC+00:00)

Vanguard 3 - Visible Passes

Search period start: 07 October 2022 00:00
Search period end: 17 October 2022 00:00
Orbit: 508 x 3257 km, 33.3° (Epoch: 06 October)

Date Brightness Start Highest point End Pass type
(mag) Time Alt. Az. Time Alt. Az. Time Alt. Az.
07 Oct 8.2 04:29:28 22° NNW 04:29:28 22° NNW 04:32:07 10° NNE visible
07 Oct 11.3 17:45:32 10° W 18:00:06 32° SSW 18:16:48 10° SSE visible
07 Oct 11.2 20:10:43 10° SW 20:21:54 17° S 20:32:01 10° SSE visible
07 Oct 11.2 22:34:50 10° SSW 22:38:41 14° SSW 22:38:41 14° SSW visible
08 Oct 11.3 18:48:29 10° WSW 19:01:40 22° SSW 19:15:03 10° SSE visible
08 Oct 11.0 21:14:44 10° SSW 21:24:27 16° S 21:27:59 15° SSE visible
09 Oct 8.9 04:13:45 13° N 04:13:45 13° N 04:14:30 10° N visible
09 Oct 11.2 19:53:02 10° SW 20:04:14 17° S 20:14:34 10° SSE visible
09 Oct 11.1 22:15:11 10° SSW 22:21:43 17° S 22:21:43 17° S visible
10 Oct 11.3 18:31:24 10° SW 18:43:46 20° SSW 18:56:39 10° SSE visible
10 Oct 11.0 20:55:49 10° SSW 21:06:54 17° S 21:10:57 16° SSE visible
10 Oct 11.3 23:13:46 10° SSW 23:15:25 13° SSW 23:15:25 13° SSW visible
11 Oct 11.2 19:35:14 10° SW 19:46:35 17° S 19:57:15 10° SE visible
11 Oct 10.9 21:55:38 10° SSW 22:04:38 21° S 22:04:38 21° S visible
12 Oct 11.4 18:14:23 10° SW 18:25:58 19° S 18:38:18 10° SSE visible
12 Oct 10.9 20:36:52 10° SSW 20:49:15 19° S 20:53:49 18° SSE visible
12 Oct 11.1 22:54:12 10° SW 22:58:17 18° SSW 22:58:17 18° SSW visible
13 Oct 11.2 19:17:21 10° SSW 19:28:55 18° S 19:40:00 10° SE visible
13 Oct 10.8 21:36:10 10° SSW 21:47:28 26° S 21:47:28 26° S visible
14 Oct 11.4 17:57:24 10° SW 18:08:15 18° S 18:20:00 10° SSE visible
14 Oct 10.9 20:17:55 10° SSW 20:31:29 22° SSE 20:36:38 19° SE visible
14 Oct 10.9 22:34:40 10° SW 22:41:06 23° SSW 22:41:06 23° SSW visible
15 Oct 11.2 18:59:19 10° SSW 19:11:12 18° S 19:22:48 10° SE visible
15 Oct 10.6 21:16:46 10° SSW 21:30:17 30° S 21:30:17 30° S visible
15 Oct 11.3 23:33:22 10° SW 23:34:45 13° SW 23:34:45 13° SW visible
16 Oct 10.8 19:58:58 10° SSW 20:13:33 24° SSE 20:19:28 21° SE visible
16 Oct 10.8 22:15:12 10° SW 22:23:56 30° SSW 22:23:56 30° SSW visible
